Starlink 31822

operational
NORAD ID: 59752 Int'l Des: 2024-090 Owner: SPXS Country: US Constellation: starlink
LEOCIRCULAR

About Starlink 31822

Description loading...

Live Position

Loading 3D Globe...

Upcoming Passes

Altitude History

Altitude vs Time

uPlot chart will show altitude changes over time

Two-Line Element Set

1 59752U 24090Y 25350.53184375 .00003696 00000-0 14381-3 0 9998
2 59752 42.9983 293.0056 0000354 308.3064 51.7755 15.27565355 90717
Epoch: Dec 16, 2025 • Age: 19 hours

Current Status

Altitude 483.7 km
Velocity 7.63 km/s
Sub-Earth Point 28.53°N, 136.02°W
Launch Date May 13, 2024
Age 1.5 years
Type internet

Technical Details

Classification Payload
Mass 730.00 kg
Dry Mass 700.00 kg
Total Mass 730.00 kg
Length 0.30 m
Diameter 4.10 m
Span 29.00 m
Shape Box + pan
Manufacturer SPXS
Bus Type Starlink V2M
Phase Status In Orbit
Owner/State SPXS/US

Large Constellations

Loading constellations...